owner,sensor,date,latitude,longitude,vertical_datum,mass_concentration_of_oxygen_in_sea_water,qcFlag 
SCCF RECON,ioos:station:SCCF:18:1,2014-05-01T00:00:00Z,26.6955,-81.8138,1.86,5.55,1111122 
SCCF RECON,ioos:station:SCCF:18:1,2014-05-01T01:00:00Z,26.6955,-81.8138,1.82,5.08,1111122 
SCCF RECON,ioos:station:SCCF:18:1,2014-05-01T02:00:00Z,26.6955,-81.8138,1.79,4.92,1111122 
SCCF RECON,ioos:station:SCCF:18:1,2014-05-01T03:00:00Z,26.6955,-81.8138,1.74,4.69,1111122 
SCCF RECON,ioos:station:SCCF:18:1,2014-05-01T04:00:00Z,26.6955,-81.8138,1.69,4.77,1111122 
SCCF RECON,ioos:station:SCCF:18:1,2014-05-01T05:00:00Z,26.6955,-81.8138,1.62,4.84,1111122 
SCCF RECON,ioos:station:SCCF:18:1,2014-05-01T06:00:00Z,26.6955,-81.8138,1.57,4.74,1111122 
SCCF RECON,ioos:station:SCCF:18:1,2014-05-01T07:00:00Z,26.6955,-81.8138,1.54,4.62,1111122 
SCCF RECON,ioos:station:SCCF:18:1,2014-05-01T08:00:00Z,26.6955,-81.8138,1.52,4.3,1111122 
SCCF RECON,ioos:station:SCCF:18:1,2014-05-01T09:00:00Z,26.6955,-81.8138,1.51,4.21,1111122 
SCCF RECON,ioos:station:SCCF:18:1,2014-05-01T10:00:00Z,26.6955,-81.8138,1.54,4.17,1111122 
SCCF RECON,ioos:station:SCCF:18:1,2014-05-01T11:00:00Z,26.6955,-81.8138,1.57,4.12,1111122 
SCCF RECON,ioos:station:SCCF:18:1,2014-05-01T12:00:00Z,26.6955,-81.8138,1.58,4.22,1111122 
SCCF RECON,ioos:station:SCCF:18:1,2014-05-01T13:00:00Z,26.6955,-81.8138,1.58,4.48,1111122 
SCCF RECON,ioos:station:SCCF:18:1,2014-05-01T14:00:00Z,26.6955,-81.8138,1.6,4.6,1111122 
SCCF RECON,ioos:station:SCCF:18:1,2014-05-01T15:00:00Z,26.6955,-81.8138,1.611,4.46,1111122 
SCCF RECON,ioos:station:SCCF:18:1,2014-05-01T16:00:00Z,26.6955,-81.8138,1.63,4.82,1111122 
SCCF RECON,ioos:station:SCCF:18:1,2014-05-01T17:00:00Z,26.6955,-81.8138,1.64,5.12,1111122 
SCCF RECON,ioos:station:SCCF:18:1,2014-05-01T18:00:00Z,26.6955,-81.8138,1.67,4.7,1111122 
SCCF RECON,ioos:station:SCCF:18:1,2014-05-01T19:00:00Z,26.6955,-81.8138,1.7,4.65,1111122 
SCCF RECON,ioos:station:SCCF:18:1,2014-05-01T20:00:00Z,26.6955,-81.8138,1.74,4.88,1111122 
SCCF RECON,ioos:station:SCCF:18:1,2014-05-01T21:00:00Z,26.6955,-81.8138,1.79,4.99,1111122 
SCCF RECON,ioos:station:SCCF:18:1,2014-05-01T22:00:00Z,26.6955,-81.8138,1.84,5.06,1111122 
SCCF RECON,ioos:station:SCCF:18:1,2014-05-01T23:00:00Z,26.6955,-81.8138,1.87,5.21,1111122 
SCCF RECON,ioos:station:SCCF:18:1,2014-05-02T00:00:00Z,26.6955,-81.8138,1.88,5.17,1111122 
SCCF RECON,ioos:station:SCCF:18:1,2014-05-02T01:00:00Z,26.6955,-81.8138,1.88,5.37,1111122 
SCCF RECON,ioos:station:SCCF:18:1,2014-05-02T02:00:00Z,26.6955,-81.8138,1.85,5.31,1111122 
SCCF RECON,ioos:station:SCCF:18:1,2014-05-02T03:00:00Z,26.6955,-81.8138,1.84,4.98,1111122 
SCCF RECON,ioos:station:SCCF:18:1,2014-05-02T04:00:00Z,26.6955,-81.8138,1.79,5.15,1111122 
SCCF RECON,ioos:station:SCCF:18:1,2014-05-02T05:00:00Z,26.6955,-81.8138,1.74,4.96,1111122 
SCCF RECON,ioos:station:SCCF:18:1,2014-05-02T06:00:00Z,26.6955,-81.8138,1.7,4.84,1111122 
SCCF RECON,ioos:station:SCCF:18:1,2014-05-02T07:00:00Z,26.6955,-81.8138,1.65,4.36,1111122 
SCCF RECON,ioos:station:SCCF:18:1,2014-05-02T08:00:00Z,26.6955,-81.8138,1.57,4.3,1111122 
SCCF RECON,ioos:station:SCCF:18:1,2014-05-02T09:00:00Z,26.6955,-81.8138,1.56,4.34,1111122 
SCCF RECON,ioos:station:SCCF:18:1,2014-05-02T10:00:00Z,26.6955,-81.8138,1.56,4.09,1111122 
SCCF RECON,ioos:station:SCCF:18:1,2014-05-02T11:00:00Z,26.6955,-81.8138,1.59,4.15,1111122 
SCCF RECON,ioos:station:SCCF:18:1,2014-05-02T12:00:00Z,26.6955,-81.8138,1.61,4.15,1111122 
SCCF RECON,ioos:station:SCCF:18:1,2014-05-02T13:00:00Z,26.6955,-81.8138,1.62,4.38,1111122 
SCCF RECON,ioos:station:SCCF:18:1,2014-05-02T14:00:00Z,26.6955,-81.8138,1.63,4.54,1111122 
SCCF RECON,ioos:station:SCCF:18:1,2014-05-02T15:00:00Z,26.6955,-81.8138,1.63,4.84,1111122 
SCCF RECON,ioos:station:SCCF:18:1,2014-05-02T16:00:00Z,26.6955,-81.8138,1.66,5.05,1111122 
SCCF RECON,ioos:station:SCCF:18:1,2014-05-02T17:00:00Z,26.6955,-81.8138,1.665,4.94,1111122 
SCCF RECON,ioos:station:SCCF:18:1,2014-05-02T18:00:00Z,26.6955,-81.8138,1.68,4.84,1111122 
SCCF RECON,ioos:station:SCCF:18:1,2014-05-02T19:00:00Z,26.6955,-81.8138,1.71,4.89,1111122 
SCCF RECON,ioos:station:SCCF:18:1,2014-05-02T20:00:00Z,26.6955,-81.8138,1.74,5.01,1111122 
SCCF RECON,ioos:station:SCCF:18:1,2014-05-02T21:00:00Z,26.6955,-81.8138,1.79,5.05,1111122 
SCCF RECON,ioos:station:SCCF:18:1,2014-05-02T22:00:00Z,26.6955,-81.8138,1.83,5.09,1111122 
SCCF RECON,ioos:station:SCCF:18:1,2014-05-02T23:00:00Z,26.6955,-81.8138,1.87,5.24,1111122 
SCCF RECON,ioos:station:SCCF:18:1,2014-05-03T00:00:00Z,26.6955,-81.8138,1.9,5.27,1111122 
SCCF RECON,ioos:station:SCCF:18:1,2014-05-03T01:00:00Z,26.6955,-81.8138,1.93,5.12,1111122 
SCCF RECON,ioos:station:SCCF:18:1,2014-05-03T02:00:00Z,26.6955,-81.8138,1.92,5.23,1111122 
SCCF RECON,ioos:station:SCCF:18:1,2014-05-03T03:00:00Z,26.6955,-81.8138,1.91,5.12,1111122 
SCCF RECON,ioos:station:SCCF:18:1,2014-05-03T04:00:00Z,26.6955,-81.8138,1.89,4.99,1111122 
SCCF RECON,ioos:station:SCCF:18:1,2014-05-03T05:00:00Z,26.6955,-81.8138,1.83,4.76,1111122 
SCCF RECON,ioos:station:SCCF:18:1,2014-05-03T06:00:00Z,26.6955,-81.8138,1.78,4.73,1111122 
SCCF RECON,ioos:station:SCCF:18:1,2014-05-03T07:00:00Z,26.6955,-81.8138,1.73,4.64,1111122 
SCCF RECON,ioos:station:SCCF:18:1,2014-05-03T08:00:00Z,26.6955,-81.8138,1.69,4.46,1111122 
SCCF RECON,ioos:station:SCCF:18:1,2014-05-03T09:00:00Z,26.6955,-81.8138,1.64,4.16,1111122 
SCCF RECON,ioos:station:SCCF:18:1,2014-05-03T10:00:00Z,26.6955,-81.8138,1.62,4.25,1111122 
SCCF RECON,ioos:station:SCCF:18:1,2014-05-03T11:00:00Z,26.6955,-81.8138,1.62,4.17,1111122 
SCCF RECON,ioos:station:SCCF:18:1,2014-05-03T12:00:00Z,26.6955,-81.8138,1.64,4.32,1111122 
SCCF RECON,ioos:station:SCCF:18:1,2014-05-03T13:00:00Z,26.6955,-81.8138,1.66,4.28,1111122 
SCCF RECON,ioos:station:SCCF:18:1,2014-05-03T14:00:00Z,26.6955,-81.8138,1.67,4.46,1111122 
SCCF RECON,ioos:station:SCCF:18:1,2014-05-03T15:00:00Z,26.6955,-81.8138,1.67,4.53,1111122 
SCCF RECON,ioos:station:SCCF:18:1,2014-05-03T16:00:00Z,26.6955,-81.8138,1.69,4.54,1111122 
SCCF RECON,ioos:station:SCCF:18:1,2014-05-03T17:00:00Z,26.6955,-81.8138,1.7,4.5,1111122 
SCCF RECON,ioos:station:SCCF:18:1,2014-05-03T18:00:00Z,26.6955,-81.8138,1.7,4.3,1111122 
SCCF RECON,ioos:station:SCCF:18:1,2014-05-03T19:00:00Z,26.6955,-81.8138,1.71,4.53,1111122 
SCCF RECON,ioos:station:SCCF:18:1,2014-05-03T20:00:00Z,26.6955,-81.8138,1.74,4.54,1111122 
SCCF RECON,ioos:station:SCCF:18:1,2014-05-03T21:00:00Z,26.6955,-81.8138,1.78,4.65,1111122 
SCCF RECON,ioos:station:SCCF:18:1,2014-05-03T22:00:00Z,26.6955,-81.8138,1.805,4.65,1111122 
SCCF RECON,ioos:station:SCCF:18:1,2014-05-03T23:00:00Z,26.6955,-81.8138,1.85,4.77,1111122 
SCCF RECON,ioos:station:SCCF:18:1,2014-05-04T00:00:00Z,26.6955,-81.8138,1.89,4.72,1111122 
SCCF RECON,ioos:station:SCCF:18:1,2014-05-04T01:00:00Z,26.6955,-81.8138,1.94,4.95,1111122 
SCCF RECON,ioos:station:SCCF:18:1,2014-05-04T02:00:00Z,26.6955,-81.8138,1.95,4.81,1111122 
SCCF RECON,ioos:station:SCCF:18:1,2014-05-04T03:00:00Z,26.6955,-81.8138,1.92,4.66,1111122 
SCCF RECON,ioos:station:SCCF:18:1,2014-05-04T04:00:00Z,26.6955,-81.8138,1.9,4.52,1111122 
SCCF RECON,ioos:station:SCCF:18:1,2014-05-04T05:00:00Z,26.6955,-81.8138,1.87,4.4,1111122 
SCCF RECON,ioos:station:SCCF:18:1,2014-05-04T06:00:00Z,26.6955,-81.8138,1.8,4.4,1111122 
SCCF RECON,ioos:station:SCCF:18:1,2014-05-04T07:00:00Z,26.6955,-81.8138,1.73,4.48,1111122 
SCCF RECON,ioos:station:SCCF:18:1,2014-05-04T08:00:00Z,26.6955,-81.8138,1.66,4.54,1111122 
SCCF RECON,ioos:station:SCCF:18:1,2014-05-04T09:00:00Z,26.6955,-81.8138,1.63,4.59,1111122 
SCCF RECON,ioos:station:SCCF:18:1,2014-05-04T10:00:00Z,26.6955,-81.8138,1.6,4.56,1111122 
SCCF RECON,ioos:station:SCCF:18:1,2014-05-04T11:00:00Z,26.6955,-81.8138,1.58,4.59,1111122 
SCCF RECON,ioos:station:SCCF:18:1,2014-05-04T12:00:00Z,26.6955,-81.8138,1.56,4.47,1111122 
SCCF RECON,ioos:station:SCCF:18:1,2014-05-04T13:00:00Z,26.6955,-81.8138,1.56,4.61,1111122 
SCCF RECON,ioos:station:SCCF:18:1,2014-05-04T14:00:00Z,26.6955,-81.8138,1.55,4.68,1111122 
SCCF RECON,ioos:station:SCCF:18:1,2014-05-04T15:00:00Z,26.6955,-81.8138,1.52,4.77,1111122 
SCCF RECON,ioos:station:SCCF:18:1,2014-05-04T16:00:00Z,26.6955,-81.8138,1.52,4.88,1111122 
SCCF RECON,ioos:station:SCCF:18:1,2014-05-04T17:00:00Z,26.6955,-81.8138,1.5,5.02,1111122 
SCCF RECON,ioos:station:SCCF:18:1,2014-05-04T18:00:00Z,26.6955,-81.8138,1.48,5.36,1111122 
SCCF RECON,ioos:station:SCCF:18:1,2014-05-04T19:00:00Z,26.6955,-81.8138,1.47,5.63,1111122 
SCCF RECON,ioos:station:SCCF:18:1,2014-05-04T20:00:00Z,26.6955,-81.8138,1.442,5.68,1111122 
SCCF RECON,ioos:station:SCCF:18:1,2014-05-04T21:00:00Z,26.6955,-81.8138,1.44,5.53,1111122 
SCCF RECON,ioos:station:SCCF:18:1,2014-05-04T22:00:00Z,26.6955,-81.8138,1.46,5.47,1111122 
SCCF RECON,ioos:station:SCCF:18:1,2014-05-04T23:00:00Z,26.6955,-81.8138,1.48,5.44,1111122 
SCCF RECON,ioos:station:SCCF:18:1,2014-05-05T00:00:00Z,26.6955,-81.8138,1.49,5.33,1111122 
SCCF RECON,ioos:station:SCCF:18:1,2014-05-05T01:00:00Z,26.6955,-81.8138,1.51,5.38,1111122 
SCCF RECON,ioos:station:SCCF:18:1,2014-05-05T02:00:00Z,26.6955,-81.8138,1.52,5.53,1111122 
SCCF RECON,ioos:station:SCCF:18:1,2014-05-05T03:00:00Z,26.6955,-81.8138,1.53,5.73,1111122 
SCCF RECON,ioos:station:SCCF:18:1,2014-05-05T04:00:00Z,26.6955,-81.8138,1.51,5.64,1111122 
SCCF RECON,ioos:station:SCCF:18:1,2014-05-05T05:00:00Z,26.6955,-81.8138,1.48,5.56,1111122 
SCCF RECON,ioos:station:SCCF:18:1,2014-05-05T06:00:00Z,26.6955,-81.8138,1.47,5.41,1111122 
SCCF RECON,ioos:station:SCCF:18:1,2014-05-05T07:00:00Z,26.6955,-81.8138,1.45,5.18,1111122 
SCCF RECON,ioos:station:SCCF:18:1,2014-05-05T08:00:00Z,26.6955,-81.8138,1.41,5.1,1111122 
SCCF RECON,ioos:station:SCCF:18:1,2014-05-05T09:00:00Z,26.6955,-81.8138,1.39,5.0,1111122 
SCCF RECON,ioos:station:SCCF:18:1,2014-05-05T10:00:00Z,26.6955,-81.8138,1.37,5.0,1111122 
SCCF RECON,ioos:station:SCCF:18:1,2014-05-05T11:00:00Z,26.6955,-81.8138,1.36,4.81,1111122 
SCCF RECON,ioos:station:SCCF:18:1,2014-05-05T12:00:00Z,26.6955,-81.8138,1.35,4.73,1111122 
SCCF RECON,ioos:station:SCCF:18:1,2014-05-05T13:00:00Z,26.6955,-81.8138,1.37,4.78,1111122 
SCCF RECON,ioos:station:SCCF:18:1,2014-05-05T14:00:00Z,26.6955,-81.8138,1.39,4.81,1111122 
SCCF RECON,ioos:station:SCCF:18:1,2014-05-05T15:00:00Z,26.6955,-81.8138,1.44,5.16,1111122 
SCCF RECON,ioos:station:SCCF:18:1,2014-05-05T16:00:00Z,26.6955,-81.8138,1.5,5.36,1111122 
SCCF RECON,ioos:station:SCCF:18:1,2014-05-05T17:00:00Z,26.6955,-81.8138,1.53,5.74,1111122 
SCCF RECON,ioos:station:SCCF:18:1,2014-05-05T18:00:00Z,26.6955,-81.8138,1.55,6.12,1111122 
SCCF RECON,ioos:station:SCCF:18:1,2014-05-05T19:00:00Z,26.6955,-81.8138,1.59,6.27,1111122 
SCCF RECON,ioos:station:SCCF:18:1,2014-05-05T20:00:00Z,26.6955,-81.8138,1.59,6.36,1111122 
SCCF RECON,ioos:station:SCCF:18:1,2014-05-05T21:00:00Z,26.6955,-81.8138,1.59,6.45,1111122 
SCCF RECON,ioos:station:SCCF:18:1,2014-05-05T22:00:00Z,26.6955,-81.8138,1.6,6.18,1111122 
SCCF RECON,ioos:station:SCCF:18:1,2014-05-05T23:00:00Z,26.6955,-81.8138,1.64,6.83,1111122 
SCCF RECON,ioos:station:SCCF:18:1,2014-05-06T00:00:00Z,26.6955,-81.8138,1.65,6.38,1111122 
SCCF RECON,ioos:station:SCCF:18:1,2014-05-06T01:00:00Z,26.6955,-81.8138,1.66,6.51,1111122 
SCCF RECON,ioos:station:SCCF:18:1,2014-05-06T02:00:00Z,26.6955,-81.8138,1.66,6.62,1111122 
SCCF RECON,ioos:station:SCCF:18:1,2014-05-06T03:00:00Z,26.6955,-81.8138,1.67,6.15,1111122 
SCCF RECON,ioos:station:SCCF:18:1,2014-05-06T04:00:00Z,26.6955,-81.8138,1.66,5.99,1111122 
SCCF RECON,ioos:station:SCCF:18:1,2014-05-06T05:00:00Z,26.6955,-81.8138,1.627,5.87,1111122 
SCCF RECON,ioos:station:SCCF:18:1,2014-05-06T06:00:00Z,26.6955,-81.8138,1.61,5.69,1111122 
SCCF RECON,ioos:station:SCCF:18:1,2014-05-06T07:00:00Z,26.6955,-81.8138,1.55,5.57,1111122 
SCCF RECON,ioos:station:SCCF:18:1,2014-05-06T08:00:00Z,26.6955,-81.8138,1.53,5.42,1111122 
SCCF RECON,ioos:station:SCCF:18:1,2014-05-06T09:00:00Z,26.6955,-81.8138,1.49,5.43,1111122 
SCCF RECON,ioos:station:SCCF:18:1,2014-05-06T10:00:00Z,26.6955,-81.8138,1.46,5.41,1111122 
SCCF RECON,ioos:station:SCCF:18:1,2014-05-06T11:00:00Z,26.6955,-81.8138,1.44,5.15,1111122 
SCCF RECON,ioos:station:SCCF:18:1,2014-05-06T12:00:00Z,26.6955,-81.8138,1.42,5.02,1111122 
SCCF RECON,ioos:station:SCCF:18:1,2014-05-06T13:00:00Z,26.6955,-81.8138,1.45,5.02,1111122 
SCCF RECON,ioos:station:SCCF:18:1,2014-05-06T14:00:00Z,26.6955,-81.8138,1.47,5.1,1111122 
SCCF RECON,ioos:station:SCCF:18:1,2014-05-06T15:00:00Z,26.6955,-81.8138,1.5,5.13,1111122 
SCCF RECON,ioos:station:SCCF:18:1,2014-05-06T16:00:00Z,26.6955,-81.8138,1.54,5.36,1111122 
SCCF RECON,ioos:station:SCCF:18:1,2014-05-06T17:00:00Z,26.6955,-81.8138,1.6,5.94,1111122 
SCCF RECON,ioos:station:SCCF:18:1,2014-05-06T18:00:00Z,26.6955,-81.8138,1.65,5.68,1111122 
SCCF RECON,ioos:station:SCCF:18:1,2014-05-06T19:00:00Z,26.6955,-81.8138,1.66,6.1,1111122 
SCCF RECON,ioos:station:SCCF:18:1,2014-05-06T20:00:00Z,26.6955,-81.8138,1.71,6.25,1111122 
SCCF RECON,ioos:station:SCCF:18:1,2014-05-06T21:00:00Z,26.6955,-81.8138,1.68,6.32,1111122 
SCCF RECON,ioos:station:SCCF:18:1,2014-05-06T22:00:00Z,26.6955,-81.8138,1.67,6.37,1111122 
SCCF RECON,ioos:station:SCCF:18:1,2014-05-06T23:00:00Z,26.6955,-81.8138,1.7,6.25,1111122 
SCCF RECON,ioos:station:SCCF:18:1,2014-05-07T00:00:00Z,26.6955,-81.8138,1.69,5.88,1111122 
SCCF RECON,ioos:station:SCCF:18:1,2014-05-07T01:00:00Z,26.6955,-81.8138,1.7,6.33,1111122 
SCCF RECON,ioos:station:SCCF:18:1,2014-05-07T02:00:00Z,26.6955,-81.8138,1.71,6.27,1111122 
SCCF RECON,ioos:station:SCCF:18:1,2014-05-07T03:00:00Z,26.6955,-81.8138,1.7,6.21,1111122 
SCCF RECON,ioos:station:SCCF:18:1,2014-05-07T04:00:00Z,26.6955,-81.8138,1.7,5.87,1111122 
SCCF RECON,ioos:station:SCCF:18:1,2014-05-07T05:00:00Z,26.6955,-81.8138,1.71,5.63,1111122 
SCCF RECON,ioos:station:SCCF:18:1,2014-05-07T06:00:00Z,26.6955,-81.8138,1.66,5.5,1111122 
SCCF RECON,ioos:station:SCCF:18:1,2014-05-07T07:00:00Z,26.6955,-81.8138,1.62,5.42,1111122 
SCCF RECON,ioos:station:SCCF:18:1,2014-05-07T08:00:00Z,26.6955,-81.8138,1.57,5.32,1111122 
SCCF RECON,ioos:station:SCCF:18:1,2014-05-07T09:00:00Z,26.6955,-81.8138,1.54,5.22,1111122 
SCCF RECON,ioos:station:SCCF:18:1,2014-05-07T10:00:00Z,26.6955,-81.8138,1.5,5.21,1111122 
SCCF RECON,ioos:station:SCCF:18:1,2014-05-07T11:00:00Z,26.6955,-81.8138,1.49,5.06,1111122 
SCCF RECON,ioos:station:SCCF:18:1,2014-05-07T12:00:00Z,26.6955,-81.8138,1.477,4.83,1111122 
SCCF RECON,ioos:station:SCCF:18:1,2014-05-07T13:00:00Z,26.6955,-81.8138,1.48,4.88,1111122 
SCCF RECON,ioos:station:SCCF:18:1,2014-05-07T14:00:00Z,26.6955,-81.8138,1.52,4.99,1111122 
SCCF RECON,ioos:station:SCCF:18:1,2014-05-07T15:00:00Z,26.6955,-81.8138,1.54,5.16,1111122 
SCCF RECON,ioos:station:SCCF:18:1,2014-05-07T16:00:00Z,26.6955,-81.8138,1.58,5.06,1111122 
SCCF RECON,ioos:station:SCCF:18:1,2014-05-07T17:00:00Z,26.6955,-81.8138,1.63,5.54,1111122 
SCCF RECON,ioos:station:SCCF:18:1,2014-05-07T18:00:00Z,26.6955,-81.8138,1.697,5.77,1111122 
SCCF RECON,ioos:station:SCCF:18:1,2014-05-07T19:00:00Z,26.6955,-81.8138,1.7,5.89,1111122 
SCCF RECON,ioos:station:SCCF:18:1,2014-05-07T20:00:00Z,26.6955,-81.8138,1.72,6.12,1111122 
SCCF RECON,ioos:station:SCCF:18:1,2014-05-07T21:00:00Z,26.6955,-81.8138,1.72,6.06,1111122 
SCCF RECON,ioos:station:SCCF:18:1,2014-05-07T22:00:00Z,26.6955,-81.8138,1.7,6.16,1111122 
SCCF RECON,ioos:station:SCCF:18:1,2014-05-07T23:00:00Z,26.6955,-81.8138,1.67,5.77,1111122 
SCCF RECON,ioos:station:SCCF:18:1,2014-05-08T00:00:00Z,26.6955,-81.8138,1.65,5.85,1111122 
SCCF RECON,ioos:station:SCCF:18:1,2014-05-08T01:00:00Z,26.6955,-81.8138,1.64,5.12,1111122 
SCCF RECON,ioos:station:SCCF:18:1,2014-05-08T02:00:00Z,26.6955,-81.8138,1.65,5.9,1111122 
SCCF RECON,ioos:station:SCCF:18:1,2014-05-08T03:00:00Z,26.6955,-81.8138,1.67,5.6,1111122 
SCCF RECON,ioos:station:SCCF:18:1,2014-05-08T04:00:00Z,26.6955,-81.8138,1.65,5.54,1111122 
SCCF RECON,ioos:station:SCCF:18:1,2014-05-08T05:00:00Z,26.6955,-81.8138,1.67,5.48,1111122 
SCCF RECON,ioos:station:SCCF:18:1,2014-05-08T06:00:00Z,26.6955,-81.8138,1.69,5.17,1111122 
SCCF RECON,ioos:station:SCCF:18:1,2014-05-08T07:00:00Z,26.6955,-81.8138,1.69,5.07,1111122 
SCCF RECON,ioos:station:SCCF:18:1,2014-05-08T08:00:00Z,26.6955,-81.8138,1.627,5.04,1111122 
SCCF RECON,ioos:station:SCCF:18:1,2014-05-08T09:00:00Z,26.6955,-81.8138,1.55,5.01,1111122 
SCCF RECON,ioos:station:SCCF:18:1,2014-05-08T10:00:00Z,26.6955,-81.8138,1.53,5.0,1111122 
SCCF RECON,ioos:station:SCCF:18:1,2014-05-08T11:00:00Z,26.6955,-81.8138,1.49,4.99,1111122 
SCCF RECON,ioos:station:SCCF:18:1,2014-05-08T12:00:00Z,26.6955,-81.8138,1.475,4.91,1111122 
SCCF RECON,ioos:station:SCCF:18:1,2014-05-08T13:00:00Z,26.6955,-81.8138,1.45,4.75,1111122 
SCCF RECON,ioos:station:SCCF:18:1,2014-05-08T14:00:00Z,26.6955,-81.8138,1.48,5.1,1111122 
SCCF RECON,ioos:station:SCCF:18:1,2014-05-08T15:00:00Z,26.6955,-81.8138,1.51,4.96,1111122 
SCCF RECON,ioos:station:SCCF:18:1,2014-05-08T16:00:00Z,26.6955,-81.8138,1.55,4.88,1111122 
SCCF RECON,ioos:station:SCCF:18:1,2014-05-08T17:00:00Z,26.6955,-81.8138,1.58,5.1,1111122 
SCCF RECON,ioos:station:SCCF:18:1,2014-05-08T18:00:00Z,26.6955,-81.8138,1.61,5.39,1111122 
SCCF RECON,ioos:station:SCCF:18:1,2014-05-08T19:00:00Z,26.6955,-81.8138,1.655,5.86,1111122 
SCCF RECON,ioos:station:SCCF:18:1,2014-05-08T20:00:00Z,26.6955,-81.8138,1.7,5.86,1111122 
SCCF RECON,ioos:station:SCCF:18:1,2014-05-08T21:00:00Z,26.6955,-81.8138,1.71,5.65,1111122 
SCCF RECON,ioos:station:SCCF:18:1,2014-05-08T22:00:00Z,26.6955,-81.8138,1.69,5.93,1111122 
SCCF RECON,ioos:station:SCCF:18:1,2014-05-08T23:00:00Z,26.6955,-81.8138,1.66,5.98,1111122 
SCCF RECON,ioos:station:SCCF:18:1,2014-05-09T00:00:00Z,26.6955,-81.8138,1.65,5.75,1111122 
SCCF RECON,ioos:station:SCCF:18:1,2014-05-09T01:00:00Z,26.6955,-81.8138,1.59,5.45,1111122 
SCCF RECON,ioos:station:SCCF:18:1,2014-05-09T02:00:00Z,26.6955,-81.8138,1.59,5.53,1111122 
SCCF RECON,ioos:station:SCCF:18:1,2014-05-09T03:00:00Z,26.6955,-81.8138,1.61,5.05,1111122 
SCCF RECON,ioos:station:SCCF:18:1,2014-05-09T04:00:00Z,26.6955,-81.8138,1.64,5.07,1111122 
SCCF RECON,ioos:station:SCCF:18:1,2014-05-09T05:00:00Z,26.6955,-81.8138,1.64,5.4,1111122 
SCCF RECON,ioos:station:SCCF:18:1,2014-05-09T06:00:00Z,26.6955,-81.8138,1.651,5.26,1111122 
SCCF RECON,ioos:station:SCCF:18:1,2014-05-09T07:00:00Z,26.6955,-81.8138,1.69,5.01,1111122 
SCCF RECON,ioos:station:SCCF:18:1,2014-05-09T08:00:00Z,26.6955,-81.8138,1.72,4.75,1111122 
SCCF RECON,ioos:station:SCCF:18:1,2014-05-09T09:00:00Z,26.6955,-81.8138,1.69,4.68,1111122 
SCCF RECON,ioos:station:SCCF:18:1,2014-05-09T10:00:00Z,26.6955,-81.8138,1.64,4.53,1111122 
SCCF RECON,ioos:station:SCCF:18:1,2014-05-09T11:00:00Z,26.6955,-81.8138,1.59,4.58,1111122 
SCCF RECON,ioos:station:SCCF:18:1,2014-05-09T12:00:00Z,26.6955,-81.8138,1.54,4.64,1111122 
SCCF RECON,ioos:station:SCCF:18:1,2014-05-09T13:00:00Z,26.6955,-81.8138,1.524,4.72,1111122 
SCCF RECON,ioos:station:SCCF:18:1,2014-05-09T14:00:00Z,26.6955,-81.8138,1.49,4.6,1111122 
SCCF RECON,ioos:station:SCCF:18:1,2014-05-09T15:00:00Z,26.6955,-81.8138,1.524,4.97,1111122 
SCCF RECON,ioos:station:SCCF:18:1,2014-05-09T16:00:00Z,26.6955,-81.8138,1.59,4.66,1111122 
SCCF RECON,ioos:station:SCCF:18:1,2014-05-09T17:00:00Z,26.6955,-81.8138,1.61,4.81,1111122 
SCCF RECON,ioos:station:SCCF:18:1,2014-05-09T18:00:00Z,26.6955,-81.8138,1.67,5.26,1111122 
SCCF RECON,ioos:station:SCCF:18:1,2014-05-09T19:00:00Z,26.6955,-81.8138,1.67,5.34,1111122 
SCCF RECON,ioos:station:SCCF:18:1,2014-05-09T20:00:00Z,26.6955,-81.8138,1.74,5.51,1111122 
SCCF RECON,ioos:station:SCCF:18:1,2014-05-09T21:00:00Z,26.6955,-81.8138,1.77,5.6,1111122 
SCCF RECON,ioos:station:SCCF:18:1,2014-05-09T22:00:00Z,26.6955,-81.8138,1.76,5.74,1111122 
SCCF RECON,ioos:station:SCCF:18:1,2014-05-09T23:00:00Z,26.6955,-81.8138,1.71,5.67,1111122 
SCCF RECON,ioos:station:SCCF:18:1,2014-05-10T00:00:00Z,26.6955,-81.8138,1.66,5.6,1111122 
SCCF RECON,ioos:station:SCCF:18:1,2014-05-10T01:00:00Z,26.6955,-81.8138,1.63,5.25,1111122 
SCCF RECON,ioos:station:SCCF:18:1,2014-05-10T02:00:00Z,26.6955,-81.8138,1.59,5.02,1111122 
SCCF RECON,ioos:station:SCCF:18:1,2014-05-10T03:00:00Z,26.6955,-81.8138,1.58,4.88,1111122 
SCCF RECON,ioos:station:SCCF:18:1,2014-05-10T04:00:00Z,26.6955,-81.8138,1.63,4.96,1111122 
SCCF RECON,ioos:station:SCCF:18:1,2014-05-10T05:00:00Z,26.6955,-81.8138,1.63,4.86,1111122 
SCCF RECON,ioos:station:SCCF:18:1,2014-05-10T06:00:00Z,26.6955,-81.8138,1.64,4.99,1111122 
SCCF RECON,ioos:station:SCCF:18:1,2014-05-10T07:00:00Z,26.6955,-81.8138,1.65,4.9,1111122 
SCCF RECON,ioos:station:SCCF:18:1,2014-05-10T08:00:00Z,26.6955,-81.8138,1.67,4.56,1111122 
SCCF RECON,ioos:station:SCCF:18:1,2014-05-10T09:00:00Z,26.6955,-81.8138,1.72,4.35,1111122 
SCCF RECON,ioos:station:SCCF:18:1,2014-05-10T10:00:00Z,26.6955,-81.8138,1.67,4.53,1111122 
SCCF RECON,ioos:station:SCCF:18:1,2014-05-10T11:00:00Z,26.6955,-81.8138,1.6,4.59,1111122 
SCCF RECON,ioos:station:SCCF:18:1,2014-05-10T12:00:00Z,26.6955,-81.8138,1.56,4.56,1111122 
SCCF RECON,ioos:station:SCCF:18:1,2014-05-10T13:00:00Z,26.6955,-81.8138,1.56,4.42,1111122 
SCCF RECON,ioos:station:SCCF:18:1,2014-05-10T14:00:00Z,26.6955,-81.8138,1.53,4.49,1111122 
SCCF RECON,ioos:station:SCCF:18:1,2014-05-10T15:00:00Z,26.6955,-81.8138,1.55,4.56,1111122 
SCCF RECON,ioos:station:SCCF:18:1,2014-05-10T16:00:00Z,26.6955,-81.8138,1.61,4.7,1111122 
SCCF RECON,ioos:station:SCCF:18:1,2014-05-10T17:00:00Z,26.6955,-81.8138,1.65,4.8,1111122 
SCCF RECON,ioos:station:SCCF:18:1,2014-05-10T18:00:00Z,26.6955,-81.8138,1.71,4.82,1111122 
SCCF RECON,ioos:station:SCCF:18:1,2014-05-10T19:00:00Z,26.6955,-81.8138,1.74,5.18,1111122 
SCCF RECON,ioos:station:SCCF:18:1,2014-05-10T20:00:00Z,26.6955,-81.8138,1.8,5.57,1111122 
SCCF RECON,ioos:station:SCCF:18:1,2014-05-10T21:00:00Z,26.6955,-81.8138,1.76,4.45,1111122 
SCCF RECON,ioos:station:SCCF:18:1,2014-05-10T22:00:00Z,26.6955,-81.8138,1.78,5.27,1111122 
SCCF RECON,ioos:station:SCCF:18:1,2014-05-10T23:00:00Z,26.6955,-81.8138,1.79,4.68,1111122 
SCCF RECON,ioos:station:SCCF:18:1,2014-05-11T00:00:00Z,26.6955,-81.8138,1.76,5.15,1111122 
SCCF RECON,ioos:station:SCCF:18:1,2014-05-11T01:00:00Z,26.6955,-81.8138,1.67,4.53,1111122 
SCCF RECON,ioos:station:SCCF:18:1,2014-05-11T02:00:00Z,26.6955,-81.8138,1.649,4.48,1111122 
SCCF RECON,ioos:station:SCCF:18:1,2014-05-11T03:00:00Z,26.6955,-81.8138,1.65,4.77,1111122 
SCCF RECON,ioos:station:SCCF:18:1,2014-05-11T04:00:00Z,26.6955,-81.8138,1.65,4.71,1111122 
SCCF RECON,ioos:station:SCCF:18:1,2014-05-11T05:00:00Z,26.6955,-81.8138,1.67,4.73,1111122 
SCCF RECON,ioos:station:SCCF:18:1,2014-05-11T06:00:00Z,26.6955,-81.8138,1.69,4.19,1111122 
SCCF RECON,ioos:station:SCCF:18:1,2014-05-11T07:00:00Z,26.6955,-81.8138,1.72,4.82,1111122 
SCCF RECON,ioos:station:SCCF:18:1,2014-05-11T08:00:00Z,26.6955,-81.8138,1.74,4.86,1111122 
SCCF RECON,ioos:station:SCCF:18:1,2014-05-11T09:00:00Z,26.6955,-81.8138,1.73,4.52,1111122 
SCCF RECON,ioos:station:SCCF:18:1,2014-05-11T10:00:00Z,26.6955,-81.8138,1.75,4.35,1111122 
SCCF RECON,ioos:station:SCCF:18:1,2014-05-11T11:00:00Z,26.6955,-81.8138,1.721,4.28,1111122 
SCCF RECON,ioos:station:SCCF:18:1,2014-05-11T12:00:00Z,26.6955,-81.8138,1.69,4.29,1111122 
SCCF RECON,ioos:station:SCCF:18:1,2014-05-11T13:00:00Z,26.6955,-81.8138,1.64,4.23,1111122 
SCCF RECON,ioos:station:SCCF:18:1,2014-05-11T14:00:00Z,26.6955,-81.8138,1.64,4.22,1111122 
SCCF RECON,ioos:station:SCCF:18:1,2014-05-11T15:00:00Z,26.6955,-81.8138,1.61,4.4,1111122 
SCCF RECON,ioos:station:SCCF:18:1,2014-05-11T16:00:00Z,26.6955,-81.8138,1.63,4.39,1111122 
SCCF RECON,ioos:station:SCCF:18:1,2014-05-11T17:00:00Z,26.6955,-81.8138,1.67,4.46,1111122 
SCCF RECON,ioos:station:SCCF:18:1,2014-05-11T18:00:00Z,26.6955,-81.8138,1.71,4.8,1111122 
SCCF RECON,ioos:station:SCCF:18:1,2014-05-11T19:00:00Z,26.6955,-81.8138,1.75,5.2,1111122 
SCCF RECON,ioos:station:SCCF:18:1,2014-05-11T20:00:00Z,26.6955,-81.8138,1.8,5.59,1111122 
SCCF RECON,ioos:station:SCCF:18:1,2014-05-11T21:00:00Z,26.6955,-81.8138,1.8,5.8,1111122 
SCCF RECON,ioos:station:SCCF:18:1,2014-05-11T22:00:00Z,26.6955,-81.8138,1.8,5.16,1111122 